Location: Dompnac
(44.5644°N, 4.1026°E)
Time: 11:41:04
(UTC+00:00)

Cosmos 1833 Rocket - Pass Details

Date: 19 September 2020
Orbit: 831 x 841 km, 71.0° (Epoch: 29 October)

Event Time Altitude Azimuth Distance (km) Brightness Sun altitude
Rises 21:27:18 0° 332° (NNW) 3,406 6.8 -36.1°
Reaches altitude 10° 21:29:46 10° 330° (NNW) 2,467 5.9 -36.3°
Enters shadow 21:32:55 34° 320° (NW) 1,359 4.1 -36.7°
